Year,Month,Day,Hour,Minute,Value (Times are PST for temperature in C)
2007,07,12,00,00,27.40
2007,07,12,00,01,27.40
2007,07,12,00,02,27.40
2007,07,12,00,03,27.40
2007,07,12,00,04,27.30
2007,07,12,00,05,27.30
2007,07,12,00,06,27.30
2007,07,12,00,07,27.30
2007,07,12,00,08,27.30
2007,07,12,00,09,27.30
2007,07,12,00,10,27.30
2007,07,12,00,11,27.30
2007,07,12,00,12,27.40
2007,07,12,00,13,27.40
2007,07,12,00,14,27.40
2007,07,12,00,15,27.40
2007,07,12,00,16,27.40
2007,07,12,00,17,27.40
2007,07,12,00,18,27.50
2007,07,12,00,19,27.50
2007,07,12,00,20,27.60
2007,07,12,00,21,27.60
2007,07,12,00,22,27.70
2007,07,12,00,23,27.70
2007,07,12,00,24,27.70
2007,07,12,00,25,27.70
2007,07,12,00,26,27.70
2007,07,12,00,27,27.70
2007,07,12,00,28,27.70
2007,07,12,00,29,27.70
2007,07,12,00,30,27.80
2007,07,12,00,31,27.80
2007,07,12,00,32,27.80
2007,07,12,00,33,27.80
2007,07,12,00,34,27.80
2007,07,12,00,35,27.80
2007,07,12,00,36,27.70
2007,07,12,00,37,27.70
2007,07,12,00,38,27.80
2007,07,12,00,39,27.70
2007,07,12,00,40,27.70
2007,07,12,00,41,27.70
2007,07,12,00,42,27.70
2007,07,12,00,43,27.70
2007,07,12,00,44,27.70
2007,07,12,00,45,27.70
2007,07,12,00,46,27.70
2007,07,12,00,47,27.70
2007,07,12,00,48,27.70
2007,07,12,00,49,27.70
2007,07,12,00,50,27.80
2007,07,12,00,51,27.80
2007,07,12,00,52,27.80
2007,07,12,00,53,27.80
2007,07,12,00,54,27.80
2007,07,12,00,55,27.80
2007,07,12,00,56,27.70
2007,07,12,00,57,27.70
2007,07,12,00,58,27.70
2007,07,12,00,59,27.60
2007,07,12,01,00,27.60
2007,07,12,01,01,27.60
2007,07,12,01,02,27.60
2007,07,12,01,03,27.60
2007,07,12,01,04,27.50
2007,07,12,01,05,27.50
2007,07,12,01,06,27.50
2007,07,12,01,07,27.40
2007,07,12,01,08,27.40
2007,07,12,01,09,27.40
2007,07,12,01,10,27.30
2007,07,12,01,11,27.30
2007,07,12,01,12,27.30
2007,07,12,01,13,27.30
2007,07,12,01,14,27.30
2007,07,12,01,15,27.20
2007,07,12,01,16,27.20
2007,07,12,01,17,27.20
2007,07,12,01,18,27.20
2007,07,12,01,19,27.20
2007,07,12,01,20,27.30
2007,07,12,01,21,27.30
2007,07,12,01,22,27.30
2007,07,12,01,23,27.30
2007,07,12,01,24,27.30
2007,07,12,01,25,27.40
2007,07,12,01,26,27.40
2007,07,12,01,27,27.40
2007,07,12,01,28,27.40
2007,07,12,01,29,27.40
2007,07,12,01,30,27.40
2007,07,12,01,31,27.40
2007,07,12,01,32,27.30
2007,07,12,01,33,27.30
2007,07,12,01,34,27.30
2007,07,12,01,35,27.30
2007,07,12,01,36,27.30
2007,07,12,01,37,27.30
2007,07,12,01,38,27.30
2007,07,12,01,39,27.30
2007,07,12,01,40,27.30
2007,07,12,01,41,27.30
2007,07,12,01,42,27.40
2007,07,12,01,43,27.40
2007,07,12,01,44,27.40
2007,07,12,01,45,27.30
2007,07,12,01,46,27.30
2007,07,12,01,47,27.30
2007,07,12,01,48,27.30
2007,07,12,01,49,27.30
2007,07,12,01,50,27.30
2007,07,12,01,51,27.20
2007,07,12,01,52,27.20
2007,07,12,01,53,27.20
2007,07,12,01,54,27.20
2007,07,12,01,55,27.10
2007,07,12,01,56,27.10
2007,07,12,01,57,27.10
2007,07,12,01,58,27.00
2007,07,12,01,59,27.00
2007,07,12,02,00,26.90
2007,07,12,02,01,26.90
2007,07,12,02,02,26.90
2007,07,12,02,03,26.80
2007,07,12,02,04,26.80
2007,07,12,02,05,26.80
2007,07,12,02,06,26.80
2007,07,12,02,07,26.70
2007,07,12,02,08,26.70
2007,07,12,02,09,26.70
2007,07,12,02,10,26.70
2007,07,12,02,11,26.70
2007,07,12,02,12,26.70
2007,07,12,02,13,26.70
2007,07,12,02,14,26.60
2007,07,12,02,15,26.60
2007,07,12,02,16,26.50
2007,07,12,02,17,26.50
2007,07,12,02,18,26.50
2007,07,12,02,19,26.40
2007,07,12,02,20,26.40
2007,07,12,02,21,26.40
2007,07,12,02,22,26.30
2007,07,12,02,23,26.30
2007,07,12,02,24,26.20
2007,07,12,02,25,26.20
2007,07,12,02,26,26.10
2007,07,12,02,27,26.00
2007,07,12,02,28,25.90
2007,07,12,02,29,25.80
2007,07,12,02,30,25.70
2007,07,12,02,31,25.70
2007,07,12,02,32,25.60
2007,07,12,02,33,25.50
2007,07,12,02,34,25.40
2007,07,12,02,35,25.30
2007,07,12,02,36,25.20
2007,07,12,02,37,25.10
2007,07,12,02,38,25.10
2007,07,12,02,39,25.00
2007,07,12,02,40,24.90
2007,07,12,02,41,24.80
2007,07,12,02,42,24.70
2007,07,12,02,43,24.70
2007,07,12,02,44,24.60
2007,07,12,02,45,24.50
2007,07,12,02,46,24.50
2007,07,12,02,47,24.40
2007,07,12,02,48,24.40
2007,07,12,02,49,24.40
2007,07,12,02,50,24.30
2007,07,12,02,51,24.30
2007,07,12,02,52,24.30
2007,07,12,02,53,24.30
2007,07,12,02,54,24.30
2007,07,12,02,55,24.20
2007,07,12,02,56,24.20
2007,07,12,02,57,24.20
2007,07,12,02,58,24.20
2007,07,12,02,59,24.20
2007,07,12,03,00,24.20
2007,07,12,03,01,24.20
2007,07,12,03,02,24.20
2007,07,12,03,03,24.20
2007,07,12,03,04,24.10
2007,07,12,03,05,24.10
2007,07,12,03,06,24.10
2007,07,12,03,07,24.00
2007,07,12,03,08,23.90
2007,07,12,03,09,23.90
2007,07,12,03,10,23.80
2007,07,12,03,11,23.80
2007,07,12,03,12,23.70
2007,07,12,03,13,23.70
2007,07,12,03,14,23.70
2007,07,12,03,15,23.60
2007,07,12,03,16,23.60
2007,07,12,03,17,23.60
2007,07,12,03,18,23.50
2007,07,12,03,19,23.50
2007,07,12,03,20,23.50
2007,07,12,03,21,23.50
2007,07,12,03,22,23.50
2007,07,12,03,23,23.40
2007,07,12,03,24,23.40
2007,07,12,03,25,23.40
2007,07,12,03,26,23.40
2007,07,12,03,27,23.50
2007,07,12,03,28,23.50
2007,07,12,03,29,23.50
2007,07,12,03,30,23.50
2007,07,12,03,31,23.50
2007,07,12,03,32,23.50
2007,07,12,03,33,23.60
2007,07,12,03,34,23.50
2007,07,12,03,35,23.60
2007,07,12,03,36,23.60
2007,07,12,03,37,23.60
2007,07,12,03,38,23.60
2007,07,12,03,39,23.60
2007,07,12,03,40,23.70
2007,07,12,03,41,23.80
2007,07,12,03,42,23.80
2007,07,12,03,43,23.90
2007,07,12,03,44,23.90
2007,07,12,03,45,23.90
2007,07,12,03,46,24.00
2007,07,12,03,47,24.00
2007,07,12,03,48,24.00
2007,07,12,03,49,24.10
2007,07,12,03,50,24.10
2007,07,12,03,51,24.10
2007,07,12,03,52,24.10
2007,07,12,03,53,24.10
2007,07,12,03,54,24.10
2007,07,12,03,55,24.10
2007,07,12,03,56,24.20
2007,07,12,03,57,24.20
2007,07,12,03,58,24.20
2007,07,12,03,59,24.20
2007,07,12,04,00,24.20
2007,07,12,04,01,24.20
2007,07,12,04,02,24.30
2007,07,12,04,03,24.30
2007,07,12,04,04,24.40
2007,07,12,04,05,24.40
2007,07,12,04,06,24.50
2007,07,12,04,08,24.60
2007,07,12,04,09,24.60
2007,07,12,04,10,24.60
2007,07,12,04,11,24.70
2007,07,12,04,12,24.70
2007,07,12,04,13,24.70
2007,07,12,04,14,24.70
2007,07,12,04,15,24.70
2007,07,12,04,16,24.70
2007,07,12,04,17,24.70
2007,07,12,04,18,24.70
2007,07,12,04,19,24.70
2007,07,12,04,20,24.70
2007,07,12,04,21,24.70
2007,07,12,04,22,24.60
2007,07,12,04,23,24.60
2007,07,12,04,24,24.60
2007,07,12,04,25,24.60
2007,07,12,04,26,24.60
2007,07,12,04,27,24.60
2007,07,12,04,28,24.60
2007,07,12,04,29,24.60
2007,07,12,04,30,24.60
2007,07,12,04,31,24.60
2007,07,12,04,32,24.60
2007,07,12,04,33,24.50
2007,07,12,04,34,24.50
2007,07,12,04,35,24.50
2007,07,12,04,36,24.50
2007,07,12,04,37,24.50
2007,07,12,04,38,24.50
2007,07,12,04,39,24.60
2007,07,12,04,40,24.60
2007,07,12,04,41,24.60
2007,07,12,04,42,24.60
2007,07,12,04,43,24.60
2007,07,12,04,44,24.50
2007,07,12,04,45,24.60
2007,07,12,04,46,24.50
2007,07,12,04,47,24.50
2007,07,12,04,48,24.60
2007,07,12,04,49,24.50
2007,07,12,04,50,24.50
2007,07,12,04,51,24.50
2007,07,12,04,52,24.50
2007,07,12,04,53,24.50
2007,07,12,04,54,24.40
2007,07,12,04,55,24.40
2007,07,12,04,56,24.30
2007,07,12,04,57,24.20
2007,07,12,04,58,24.00
2007,07,12,04,59,23.80
2007,07,12,05,00,23.60
2007,07,12,05,01,23.50
2007,07,12,05,02,23.50
2007,07,12,05,03,23.50
2007,07,12,05,04,23.40
2007,07,12,05,05,23.50
2007,07,12,05,06,23.50
2007,07,12,05,07,23.50
2007,07,12,05,08,23.40
2007,07,12,05,09,23.40
2007,07,12,05,10,23.40
2007,07,12,05,11,23.40
2007,07,12,05,12,23.40
2007,07,12,05,13,23.40
2007,07,12,05,14,23.50
2007,07,12,05,15,23.50
2007,07,12,05,16,23.50
2007,07,12,05,17,23.60
2007,07,12,05,18,23.60
2007,07,12,05,19,23.50
2007,07,12,05,20,23.50
2007,07,12,05,21,23.40
2007,07,12,05,22,23.40
2007,07,12,05,23,23.40
2007,07,12,05,24,23.30
2007,07,12,05,25,23.10
2007,07,12,05,26,23.00
2007,07,12,05,27,22.90
2007,07,12,05,28,22.80
2007,07,12,05,29,22.70
2007,07,12,05,30,22.70
2007,07,12,05,31,22.60
2007,07,12,05,32,22.60
2007,07,12,05,33,22.60
2007,07,12,05,34,22.60
2007,07,12,05,35,22.60
2007,07,12,05,36,22.60
2007,07,12,05,37,22.60
2007,07,12,05,38,22.60
2007,07,12,05,39,22.50
2007,07,12,05,40,22.50
2007,07,12,05,41,22.40
2007,07,12,05,42,22.40
2007,07,12,05,43,22.40
2007,07,12,05,44,22.30
2007,07,12,05,45,22.30
2007,07,12,05,46,22.20
2007,07,12,05,47,22.10
2007,07,12,05,48,22.00
2007,07,12,05,49,22.00
2007,07,12,05,50,21.90
2007,07,12,05,51,21.80
2007,07,12,05,52,21.80
2007,07,12,05,53,21.70
2007,07,12,05,54,21.70
2007,07,12,05,55,21.50
2007,07,12,05,56,21.40
2007,07,12,05,57,21.30
2007,07,12,05,58,21.20
2007,07,12,05,59,21.10
2007,07,12,06,00,21.00
2007,07,12,06,01,20.90
2007,07,12,06,02,20.80
2007,07,12,06,03,20.70
2007,07,12,06,04,20.60
2007,07,12,06,05,20.50
2007,07,12,06,06,20.50
2007,07,12,06,07,20.40
2007,07,12,06,08,20.30
2007,07,12,06,09,20.30
2007,07,12,06,10,20.20
2007,07,12,06,11,20.20
2007,07,12,06,12,20.10
2007,07,12,06,13,20.10
2007,07,12,06,14,20.00
2007,07,12,06,15,20.00
2007,07,12,06,16,19.90
2007,07,12,06,17,19.90
2007,07,12,06,18,19.90
2007,07,12,06,19,19.90
2007,07,12,06,20,19.80
2007,07,12,06,21,19.80
2007,07,12,06,22,19.80
2007,07,12,06,23,19.80
2007,07,12,06,24,19.80
2007,07,12,06,25,19.80
2007,07,12,06,26,19.80
2007,07,12,06,27,19.80
2007,07,12,06,28,19.80
2007,07,12,06,29,19.70
2007,07,12,06,30,19.70
2007,07,12,06,31,19.70
2007,07,12,06,32,19.70
2007,07,12,06,33,19.70
2007,07,12,06,34,19.70
2007,07,12,06,35,19.70
2007,07,12,06,36,19.70
2007,07,12,06,37,19.70
2007,07,12,06,38,19.70
2007,07,12,06,39,19.70
2007,07,12,06,40,19.70
2007,07,12,06,41,19.70
2007,07,12,06,42,19.70
2007,07,12,06,43,19.70
2007,07,12,06,44,19.70
2007,07,12,06,45,19.70
2007,07,12,06,46,19.80
2007,07,12,06,47,19.80
2007,07,12,06,48,19.90
2007,07,12,06,49,20.00
2007,07,12,06,50,20.00
2007,07,12,06,51,20.10
2007,07,12,06,52,20.20
2007,07,12,06,53,20.20
2007,07,12,06,54,20.30
2007,07,12,06,55,20.30
2007,07,12,06,56,20.40
2007,07,12,06,57,20.50
2007,07,12,06,58,20.50
2007,07,12,06,59,20.60
2007,07,12,07,00,20.60
2007,07,12,07,01,20.60
2007,07,12,07,02,20.60
2007,07,12,07,03,20.60
2007,07,12,07,04,20.60
2007,07,12,07,05,20.70
2007,07,12,07,06,20.70
2007,07,12,07,07,20.70
2007,07,12,07,08,20.70
2007,07,12,07,09,20.70
2007,07,12,07,10,20.70
2007,07,12,07,11,20.80
2007,07,12,07,12,20.80
2007,07,12,07,13,20.80
2007,07,12,07,14,20.80
2007,07,12,07,15,20.80
2007,07,12,07,16,20.80
2007,07,12,07,17,20.80
2007,07,12,07,18,20.80
2007,07,12,07,19,20.80
2007,07,12,07,20,20.90
2007,07,12,07,21,20.90
2007,07,12,07,22,20.90
2007,07,12,07,23,21.00
2007,07,12,07,24,21.00
2007,07,12,07,25,21.10
2007,07,12,07,26,21.10
2007,07,12,07,27,21.20
2007,07,12,07,28,21.20
2007,07,12,07,29,21.20
2007,07,12,07,30,21.20
2007,07,12,07,31,21.20
2007,07,12,07,32,21.20
2007,07,12,07,33,21.20
2007,07,12,07,34,21.20
2007,07,12,07,35,21.20
2007,07,12,07,36,21.20
2007,07,12,07,37,21.20
2007,07,12,07,38,21.30
2007,07,12,07,39,21.30
2007,07,12,07,40,21.30
2007,07,12,07,41,21.30
2007,07,12,07,42,21.30
2007,07,12,07,43,21.40
2007,07,12,07,44,21.40
2007,07,12,07,45,21.50
2007,07,12,07,46,21.50
2007,07,12,07,47,21.40
2007,07,12,07,48,21.50
2007,07,12,07,49,21.40
2007,07,12,07,50,21.30
2007,07,12,07,51,21.20
2007,07,12,07,52,21.10
2007,07,12,07,53,21.00
2007,07,12,07,54,20.90
2007,07,12,07,55,20.80
2007,07,12,07,56,20.70
2007,07,12,07,57,20.70
2007,07,12,07,58,20.60
2007,07,12,07,59,20.50
2007,07,12,08,00,20.40
2007,07,12,08,01,20.40
2007,07,12,08,02,20.40
2007,07,12,08,03,20.30
2007,07,12,08,04,20.30
2007,07,12,08,05,20.30
2007,07,12,08,06,20.30
2007,07,12,08,07,20.30
2007,07,12,08,08,20.40
2007,07,12,08,09,20.30
2007,07,12,08,10,20.30
2007,07,12,08,11,20.30
2007,07,12,08,12,20.30
2007,07,12,08,13,20.30
2007,07,12,08,14,20.30
2007,07,12,08,15,20.30
2007,07,12,08,16,20.40
2007,07,12,08,17,20.40
2007,07,12,08,18,20.50
2007,07,12,08,19,20.50
2007,07,12,08,20,20.60
2007,07,12,08,21,20.60
2007,07,12,08,22,20.70
2007,07,12,08,23,20.70
2007,07,12,08,24,20.60
2007,07,12,08,25,20.60
2007,07,12,08,26,20.60
2007,07,12,08,27,20.70
2007,07,12,08,28,20.70
2007,07,12,08,29,20.80
2007,07,12,08,30,20.80
2007,07,12,08,31,20.90
2007,07,12,08,32,21.00
2007,07,12,08,33,21.10
2007,07,12,08,34,21.20
2007,07,12,08,35,21.20
2007,07,12,08,36,21.30
2007,07,12,08,37,21.40
2007,07,12,08,38,21.50
2007,07,12,08,39,21.60
2007,07,12,08,40,21.70
2007,07,12,08,41,21.80
2007,07,12,08,42,21.90
2007,07,12,08,43,22.00
2007,07,12,08,44,22.10
2007,07,12,08,45,22.20
2007,07,12,08,46,22.20
2007,07,12,08,47,22.20
2007,07,12,08,48,22.30
2007,07,12,08,49,22.30
2007,07,12,08,50,22.20
2007,07,12,08,51,22.20
2007,07,12,08,52,22.10
2007,07,12,08,53,22.10
2007,07,12,08,54,22.10
2007,07,12,08,55,22.00
2007,07,12,08,56,21.90
2007,07,12,08,57,21.90
2007,07,12,08,58,21.90
2007,07,12,08,59,21.80
2007,07,12,09,00,21.60
2007,07,12,09,01,21.50
2007,07,12,09,02,21.40
2007,07,12,09,03,21.30
2007,07,12,09,04,21.20
2007,07,12,09,05,21.10
2007,07,12,09,06,21.10
2007,07,12,09,07,21.20
2007,07,12,09,08,21.20
2007,07,12,09,09,21.30
2007,07,12,09,10,21.20
2007,07,12,09,11,21.20
2007,07,12,09,12,21.20
2007,07,12,09,13,21.20
2007,07,12,09,14,21.30
2007,07,12,09,15,21.40
2007,07,12,09,16,21.50
2007,07,12,09,17,21.60
2007,07,12,09,18,21.80
2007,07,12,09,19,21.90
2007,07,12,09,20,22.10
2007,07,12,09,21,22.20
2007,07,12,09,22,22.30
2007,07,12,09,23,22.50
2007,07,12,09,24,22.60
2007,07,12,09,25,22.80
2007,07,12,09,26,22.90
2007,07,12,09,27,23.00
2007,07,12,09,28,23.00
2007,07,12,09,29,23.10
2007,07,12,09,30,23.10
2007,07,12,09,31,23.10
2007,07,12,09,32,23.20
2007,07,12,09,33,23.30
2007,07,12,09,34,23.40
2007,07,12,09,35,23.40
2007,07,12,09,36,23.40
2007,07,12,09,37,23.30
2007,07,12,09,38,23.10
2007,07,12,09,39,22.90
2007,07,12,09,40,22.90
2007,07,12,09,41,22.90
2007,07,12,09,42,22.90
2007,07,12,09,43,23.00
2007,07,12,09,44,23.00
2007,07,12,09,45,23.10
2007,07,12,09,46,22.90
2007,07,12,09,47,22.70
2007,07,12,09,48,22.60
2007,07,12,09,49,22.50
2007,07,12,09,50,22.60
2007,07,12,09,51,22.60
2007,07,12,09,52,22.60
2007,07,12,09,53,22.60
2007,07,12,09,54,22.60
2007,07,12,09,55,22.60
2007,07,12,09,56,22.60
2007,07,12,09,57,22.60
2007,07,12,09,58,22.60
2007,07,12,09,59,22.60
2007,07,12,10,00,22.60
2007,07,12,10,01,22.60
2007,07,12,10,02,22.60
2007,07,12,10,03,22.60
2007,07,12,10,04,22.70
2007,07,12,10,05,22.80
2007,07,12,10,06,22.90
2007,07,12,10,07,23.00
2007,07,12,10,08,23.10
2007,07,12,10,09,23.10
2007,07,12,10,10,23.20
2007,07,12,10,11,23.10
2007,07,12,10,12,23.10
2007,07,12,10,13,23.10
2007,07,12,10,14,23.00
2007,07,12,10,15,23.00
2007,07,12,10,16,23.00
2007,07,12,10,17,22.90
2007,07,12,10,18,22.80
2007,07,12,10,19,22.80
2007,07,12,10,20,22.70
2007,07,12,10,21,22.70
2007,07,12,10,22,22.70
2007,07,12,10,23,22.70
2007,07,12,10,24,22.70
2007,07,12,10,25,22.50
2007,07,12,10,26,22.40
2007,07,12,10,27,22.40
2007,07,12,10,28,22.30
2007,07,12,10,29,22.40
2007,07,12,10,30,22.40
2007,07,12,10,31,22.50
2007,07,12,10,32,22.70
2007,07,12,10,33,22.80
2007,07,12,10,34,22.90
2007,07,12,10,35,22.90
2007,07,12,10,36,23.00
2007,07,12,10,37,22.90
2007,07,12,10,38,22.90
2007,07,12,10,39,22.90
2007,07,12,10,40,22.90
2007,07,12,10,41,22.90
2007,07,12,10,42,22.90
2007,07,12,10,43,22.90
2007,07,12,10,44,22.90
2007,07,12,10,45,22.90
2007,07,12,10,46,23.00
2007,07,12,10,47,23.00
2007,07,12,10,48,23.00
2007,07,12,10,49,23.00
2007,07,12,10,50,23.10
2007,07,12,10,51,23.20
2007,07,12,10,52,23.30
2007,07,12,10,53,23.40
2007,07,12,10,54,23.40
2007,07,12,10,55,23.40
2007,07,12,10,56,23.50
2007,07,12,10,57,23.60
2007,07,12,10,58,23.70
2007,07,12,10,59,23.70
2007,07,12,11,00,23.70
2007,07,12,11,01,23.70
2007,07,12,11,02,23.80
2007,07,12,11,03,23.90
2007,07,12,11,04,23.90
2007,07,12,11,05,24.00
2007,07,12,11,06,24.10
2007,07,12,11,07,24.20
2007,07,12,11,08,24.10
2007,07,12,11,09,24.10
2007,07,12,11,10,24.10
2007,07,12,11,11,24.20
2007,07,12,11,12,24.30
2007,07,12,11,13,24.30
2007,07,12,11,14,24.40
2007,07,12,11,15,24.50
2007,07,12,11,16,24.60
2007,07,12,11,17,24.70
2007,07,12,11,18,24.60
2007,07,12,11,19,24.60
2007,07,12,11,20,24.60
2007,07,12,11,21,24.60
2007,07,12,11,22,24.60
2007,07,12,11,23,24.70
2007,07,12,11,24,24.70
2007,07,12,11,25,24.80
2007,07,12,11,26,24.90
2007,07,12,11,27,25.00
2007,07,12,11,28,25.10
2007,07,12,11,29,25.20
2007,07,12,11,30,25.30
2007,07,12,11,31,25.30
2007,07,12,11,32,25.30
2007,07,12,11,33,25.30
2007,07,12,11,34,25.20
2007,07,12,11,35,25.20
2007,07,12,11,36,25.30
2007,07,12,11,37,25.20
2007,07,12,11,38,25.20
2007,07,12,11,39,25.20
2007,07,12,11,40,25.20
2007,07,12,11,41,25.20
2007,07,12,11,42,25.30
2007,07,12,11,43,25.30
2007,07,12,11,44,25.40
2007,07,12,11,45,25.40
2007,07,12,11,46,25.40
2007,07,12,11,47,25.40
2007,07,12,11,48,25.50
2007,07,12,11,49,25.40
2007,07,12,11,50,25.30
2007,07,12,11,51,25.30
2007,07,12,11,52,25.50
2007,07,12,11,53,25.60
2007,07,12,11,54,25.70
2007,07,12,11,55,25.80
2007,07,12,11,56,25.90
2007,07,12,11,57,25.90
2007,07,12,11,58,25.90
2007,07,12,11,59,25.90
2007,07,12,12,00,26.00
2007,07,12,12,01,25.90
2007,07,12,12,02,26.00
2007,07,12,12,03,26.10
2007,07,12,12,04,26.30
2007,07,12,12,05,26.40
2007,07,12,12,06,26.50
2007,07,12,12,07,26.50
2007,07,12,12,08,26.60
2007,07,12,12,09,26.50
2007,07,12,12,10,26.50
2007,07,12,12,11,26.50
2007,07,12,12,12,26.50
2007,07,12,12,13,26.50
2007,07,12,12,14,26.50
2007,07,12,12,15,26.50
2007,07,12,12,16,26.50
2007,07,12,12,17,26.50
2007,07,12,12,18,26.60
2007,07,12,12,19,26.70
2007,07,12,12,20,26.80
2007,07,12,12,21,26.80
2007,07,12,12,22,26.80
2007,07,12,12,23,26.80
2007,07,12,12,24,26.80
2007,07,12,12,25,26.80
2007,07,12,12,26,26.80
2007,07,12,12,27,26.80
2007,07,12,12,28,26.80
2007,07,12,12,29,26.80
2007,07,12,12,30,26.90
2007,07,12,12,31,27.00
2007,07,12,12,32,27.00
2007,07,12,12,33,27.10
2007,07,12,12,34,27.10
2007,07,12,12,35,27.10
2007,07,12,12,36,27.00
2007,07,12,12,37,27.00
2007,07,12,12,38,27.00
2007,07,12,12,39,26.90
2007,07,12,12,40,26.80
2007,07,12,12,41,26.70
2007,07,12,12,42,26.50
2007,07,12,12,43,26.30
2007,07,12,12,44,26.30
2007,07,12,12,45,26.30
2007,07,12,12,46,26.30
2007,07,12,12,47,26.30
2007,07,12,12,48,26.20
2007,07,12,12,49,26.30
2007,07,12,12,50,26.30
2007,07,12,12,51,26.50
2007,07,12,12,52,26.60
2007,07,12,12,53,26.70
2007,07,12,12,54,26.80
2007,07,12,12,55,26.80
2007,07,12,12,56,26.80
2007,07,12,12,57,26.80
2007,07,12,12,58,26.80
2007,07,12,12,59,26.80
2007,07,12,13,00,26.90
2007,07,12,13,01,26.90
2007,07,12,13,02,27.00
2007,07,12,13,03,27.00
2007,07,12,13,04,27.10
2007,07,12,13,05,27.10
2007,07,12,13,06,27.00
2007,07,12,13,07,26.90
2007,07,12,13,08,26.80
2007,07,12,13,09,26.70
2007,07,12,13,10,26.70
2007,07,12,13,11,26.70
2007,07,12,13,12,26.70
2007,07,12,13,13,26.70
2007,07,12,13,14,26.70
2007,07,12,13,15,26.70
2007,07,12,13,16,26.70
2007,07,12,13,17,26.60
2007,07,12,13,18,26.50
2007,07,12,13,19,26.30
2007,07,12,13,20,26.10
2007,07,12,13,21,25.90
2007,07,12,13,22,25.80
2007,07,12,13,23,25.70
2007,07,12,13,24,25.50
2007,07,12,13,25,25.40
2007,07,12,13,26,25.30
2007,07,12,13,27,25.30
2007,07,12,13,28,25.30
2007,07,12,13,29,25.30
2007,07,12,13,30,25.20
2007,07,12,13,31,25.20
2007,07,12,13,32,25.20
2007,07,12,13,33,25.30
2007,07,12,13,34,25.50
2007,07,12,13,35,25.60
2007,07,12,13,36,25.70
2007,07,12,13,37,25.90
2007,07,12,13,38,26.10
2007,07,12,13,39,26.30
2007,07,12,13,40,26.50
2007,07,12,13,41,26.60
2007,07,12,13,42,26.80
2007,07,12,13,43,26.70
2007,07,12,13,44,26.80
2007,07,12,13,45,26.90
2007,07,12,13,46,26.90
2007,07,12,13,47,26.90
2007,07,12,13,48,26.80
2007,07,12,13,49,26.60
2007,07,12,13,50,26.40
2007,07,12,13,51,26.20
2007,07,12,13,52,26.00
2007,07,12,13,53,25.90
2007,07,12,13,54,25.90
2007,07,12,13,55,25.80
2007,07,12,13,56,25.80
2007,07,12,13,57,25.90
2007,07,12,13,58,25.90
2007,07,12,13,59,25.90
2007,07,12,14,00,26.00
2007,07,12,14,01,26.10
2007,07,12,14,02,26.20
2007,07,12,14,03,26.40
2007,07,12,14,04,26.50
2007,07,12,14,05,26.50
2007,07,12,14,06,26.50
2007,07,12,14,07,26.60
2007,07,12,14,08,26.70
2007,07,12,14,09,26.70
2007,07,12,14,10,26.80
2007,07,12,14,11,26.80
2007,07,12,14,12,26.80
2007,07,12,14,13,26.80
2007,07,12,14,14,26.80
2007,07,12,14,15,26.90
2007,07,12,14,16,26.90
2007,07,12,14,17,26.80
2007,07,12,14,18,26.70
2007,07,12,14,19,26.60
2007,07,12,14,20,26.50
2007,07,12,14,21,26.40
2007,07,12,14,22,26.30
2007,07,12,14,23,26.20
2007,07,12,14,24,26.20
2007,07,12,14,25,26.20
2007,07,12,14,26,26.10
2007,07,12,14,27,26.10
2007,07,12,14,28,26.10
2007,07,12,14,29,26.20
2007,07,12,14,30,26.20
2007,07,12,14,31,26.20
2007,07,12,14,32,26.20
2007,07,12,14,33,26.10
2007,07,12,14,34,26.10
2007,07,12,14,35,26.00
2007,07,12,14,36,25.90
2007,07,12,14,37,25.80
2007,07,12,14,38,25.80
2007,07,12,14,39,25.70
2007,07,12,14,40,25.60
2007,07,12,14,41,25.50
2007,07,12,14,42,25.50
2007,07,12,14,43,25.40
2007,07,12,14,44,25.30
2007,07,12,14,45,25.20
2007,07,12,14,46,25.10
2007,07,12,14,47,25.10
2007,07,12,14,48,25.00
2007,07,12,14,49,24.80
2007,07,12,14,50,24.70
2007,07,12,14,51,24.60
2007,07,12,14,52,24.50
2007,07,12,14,53,24.40
2007,07,12,14,54,24.30
2007,07,12,14,55,24.20
2007,07,12,14,56,24.20
2007,07,12,14,57,24.20
2007,07,12,14,58,24.20
2007,07,12,14,59,24.20
2007,07,12,15,00,24.10
2007,07,12,15,01,24.10
2007,07,12,15,02,24.10
2007,07,12,15,03,24.10
2007,07,12,15,04,24.00
2007,07,12,15,05,23.90
2007,07,12,15,06,23.80
2007,07,12,15,07,23.60
2007,07,12,15,08,23.50
2007,07,12,15,09,23.40
2007,07,12,15,10,23.30
2007,07,12,15,11,23.30
2007,07,12,15,12,23.30
2007,07,12,15,13,23.20
2007,07,12,15,14,23.20
2007,07,12,15,15,23.20
2007,07,12,15,16,23.20
2007,07,12,15,17,23.20
2007,07,12,15,18,23.20
2007,07,12,15,19,23.10
2007,07,12,15,20,22.90
2007,07,12,15,21,22.70
2007,07,12,15,22,22.50
2007,07,12,15,23,22.40
2007,07,12,15,24,22.30
2007,07,12,15,25,22.20
2007,07,12,15,26,22.20
2007,07,12,15,27,22.20
2007,07,12,15,28,22.20
2007,07,12,15,29,22.20
2007,07,12,15,30,22.20
2007,07,12,15,31,22.30
2007,07,12,15,32,22.40
2007,07,12,15,33,22.50
2007,07,12,15,34,22.60
2007,07,12,15,35,22.70
2007,07,12,15,36,22.80
2007,07,12,15,37,22.90
2007,07,12,15,38,23.00
2007,07,12,15,39,23.20
2007,07,12,15,40,23.30
2007,07,12,15,41,23.40
2007,07,12,15,42,23.50
2007,07,12,15,43,23.60
2007,07,12,15,44,23.70
2007,07,12,15,45,23.70
2007,07,12,15,46,23.70
2007,07,12,15,47,23.80
2007,07,12,15,48,23.80
2007,07,12,15,49,23.80
2007,07,12,15,50,23.80
2007,07,12,15,51,23.90
2007,07,12,15,52,23.90
2007,07,12,15,53,24.00
2007,07,12,15,54,24.00
2007,07,12,15,55,24.10
2007,07,12,15,56,24.10
2007,07,12,15,57,24.20
2007,07,12,15,58,24.20
2007,07,12,15,59,24.30
2007,07,12,16,00,24.30
2007,07,12,16,01,24.20
2007,07,12,16,02,24.20
2007,07,12,16,03,24.20
2007,07,12,16,04,24.20
2007,07,12,16,05,24.30
2007,07,12,16,06,24.30
2007,07,12,16,07,24.30
2007,07,12,16,08,24.30
2007,07,12,16,09,24.30
2007,07,12,16,10,24.40
2007,07,12,16,11,24.40
2007,07,12,16,12,24.50
2007,07,12,16,13,24.50
2007,07,12,16,14,24.60
2007,07,12,16,15,24.60
2007,07,12,16,16,24.70
2007,07,12,16,17,24.70
2007,07,12,16,18,24.70
2007,07,12,16,19,24.80
2007,07,12,16,20,24.80
2007,07,12,16,21,24.80
2007,07,12,16,22,24.80
2007,07,12,16,23,24.80
2007,07,12,16,24,24.70
2007,07,12,16,25,24.70
2007,07,12,16,26,24.70
2007,07,12,16,27,24.80
2007,07,12,16,28,24.80
2007,07,12,16,29,24.90
2007,07,12,16,30,24.90
2007,07,12,16,31,25.00
2007,07,12,16,32,25.10
2007,07,12,16,33,25.10
2007,07,12,16,34,25.20
2007,07,12,16,35,25.30
2007,07,12,16,36,25.30
2007,07,12,16,37,25.30
2007,07,12,16,38,25.30
2007,07,12,16,39,25.30
2007,07,12,16,40,25.20
2007,07,12,16,41,25.10
2007,07,12,16,42,25.00
2007,07,12,16,43,24.90
2007,07,12,16,44,24.80
2007,07,12,16,45,24.70
2007,07,12,16,46,24.60
2007,07,12,16,47,24.60
2007,07,12,16,48,24.60
2007,07,12,16,49,24.50
2007,07,12,16,50,24.40
2007,07,12,16,51,24.30
2007,07,12,16,52,24.20
2007,07,12,16,53,24.10
2007,07,12,16,54,24.10
2007,07,12,16,55,24.10
2007,07,12,16,56,24.10
2007,07,12,16,57,24.10
2007,07,12,16,58,24.10
2007,07,12,16,59,24.10
2007,07,12,17,00,24.20
2007,07,12,17,01,24.20
2007,07,12,17,02,24.20
2007,07,12,17,03,24.20
2007,07,12,17,04,24.20
2007,07,12,17,05,24.20
2007,07,12,17,06,24.30
2007,07,12,17,07,24.30
2007,07,12,17,08,24.30
2007,07,12,17,09,24.40
2007,07,12,17,10,24.50
2007,07,12,17,11,24.60
2007,07,12,17,12,24.60
2007,07,12,17,13,24.70
2007,07,12,17,14,24.80
2007,07,12,17,15,24.80
2007,07,12,17,16,24.90
2007,07,12,17,17,24.90
2007,07,12,17,18,24.90
2007,07,12,17,19,25.00
2007,07,12,17,20,25.00